Weather History for KPBI - November, 2014

Change the Weather History Date:

Thursday, November 20, 2014

  Actual Average Record
Temperature  
Mean Temperature 70 °F 72 °F  
Max Temperature 79 °F 79 °F 88 °F (1948)
Min Temperature 60 °F 65 °F 44 °F (1916)
Degree Days  
Heating Degree Days 0 0  
Month to date heating degree days 10 0  
Since 1 July heating degree days 10 1  
Cooling Degree Days 5 7  
Month to date cooling degree days 124 176  
Year to date cooling degree days 4060 3797  
Growing Degree Days 20 (Base 50)    
Moisture  
Dew Point 58 °F    
Average Humidity 69    
Maximum Humidity 90    
Minimum Humidity 47    
Precipitation  
Precipitation 0.00 in 0.13 in 1.99 in (2005)
Month to date precipitation 1.57 3.43  
Year to date precipitation 59.16 57.63  
Snow  
Snow 0.00 in - - ()
Month to date snowfall 0.0  
Since 1 July snowfall 0.0  
Since 1 September snowfall 0.0  
Snow Depth 0.00 in    
Sea Level Pressure  
Sea Level Pressure 30.15 in    
Wind  
Wind Speed 12 mph (NNE)    
Max Wind Speed 18 mph    
Max Gust Speed 25 mph    
Visibility 10 miles    
Events      
T = Trace of Precipitation, MM = Missing Value Source: NWS Daily Summary

Daily Weather History Graph

Daily Weather History Graph

Search for Another Location

Airport or City:

Trip Planner

Search our weather history database for the weather conditions in past years. The results will help you decide how hot, cold, wet, or windy it might be!

Date:

Astronomy

Nov. 20, 2014 Rise Set
Actual Time 6:43 AM EST 5:28 PM EST
Civil Twilight 6:18 AM EST 5:53 PM EST
Nautical Twilight 5:50 AM EST 6:21 PM EST
Astronomical Twilight 5:22 AM EST 6:49 PM EST
Moon 4:48 AM EST (11/20) 4:21 PM EST (11/20)
Length of Visible Light 11h 34m
Length of Day
10h 44m
Waning Crescent, 4% of the Moon is Illuminated
Nov 20
Waning Crescent
Nov 22
New
Nov 29
First Quarter
Dec 6
Full
Dec 14
Last Quarter

Hourly Weather History & Observations

Time (EST) Temp. Dew Point Humidity Pressure Visibility Wind Dir Wind Speed Gust Speed Precip Events Conditions
12:53 AM 62.1 °F 57.0 °F 84% 30.16 in 10.0 mi NNW 8.1 mph - N/A   Overcast
1:53 AM 61.0 °F 57.0 °F 87% 30.16 in 10.0 mi NW 8.1 mph - N/A   Mostly Cloudy
2:53 AM 60.1 °F 57.0 °F 90% 30.15 in 10.0 mi NW 6.9 mph - N/A   Mostly Cloudy
3:53 AM 61.0 °F 57.0 °F 87% 30.14 in 10.0 mi NNW 5.8 mph - N/A   Mostly Cloudy
4:53 AM 60.1 °F 55.9 °F 86% 30.14 in 10.0 mi NW 4.6 mph - N/A   Mostly Cloudy
5:53 AM 61.0 °F 57.0 °F 87% 30.15 in 10.0 mi NW 4.6 mph - N/A   Mostly Cloudy
6:53 AM 61.0 °F 57.9 °F 90% 30.16 in 10.0 mi NNW 4.6 mph - N/A   Overcast
7:53 AM 63.0 °F 57.9 °F 84% 30.17 in 10.0 mi NNW 6.9 mph - N/A   Mostly Cloudy
8:53 AM 66.0 °F 59.0 °F 78% 30.19 in 10.0 mi NNW 5.8 mph - N/A   Mostly Cloudy
9:53 AM 75.9 °F 59.0 °F 56% 30.19 in 10.0 mi NNE 15.0 mph - N/A   Mostly Cloudy
10:53 AM 77.0 °F 57.9 °F 52% 30.18 in 10.0 mi NE 19.6 mph 25.3 mph N/A   Mostly Cloudy
11:53 AM 77.0 °F 57.0 °F 50% 30.15 in 10.0 mi NE 19.6 mph - N/A   Mostly Cloudy
12:53 PM 77.0 °F 55.0 °F 47% 30.13 in 10.0 mi NE 16.1 mph 23.0 mph N/A   Mostly Cloudy
1:53 PM 77.0 °F 55.0 °F 47% 30.11 in 10.0 mi NNE 15.0 mph - N/A   Mostly Cloudy
2:53 PM 77.0 °F 55.9 °F 48% 30.11 in 10.0 mi NNE 12.7 mph 21.9 mph N/A   Mostly Cloudy
3:53 PM 75.0 °F 57.9 °F 55% 30.12 in 10.0 mi NE 15.0 mph - N/A   Mostly Cloudy
4:53 PM 75.0 °F 59.0 °F 57% 30.11 in 10.0 mi NE 13.8 mph - N/A   Mostly Cloudy
5:53 PM 73.9 °F 59.0 °F 59% 30.12 in 10.0 mi NE 13.8 mph - N/A   Mostly Cloudy
6:53 PM 73.9 °F 59.0 °F 59% 30.14 in 10.0 mi NE 12.7 mph - N/A   Mostly Cloudy
7:53 PM 73.9 °F 59.0 °F 59% 30.15 in 10.0 mi NE 11.5 mph - N/A   Mostly Cloudy
8:53 PM 73.9 °F 59.0 °F 59% 30.16 in 10.0 mi ENE 13.8 mph - N/A   Mostly Cloudy
9:53 PM 73.9 °F 59.0 °F 59% 30.16 in 10.0 mi ENE 13.8 mph - N/A   Mostly Cloudy
10:53 PM 73.9 °F 60.1 °F 62% 30.16 in 10.0 mi ENE 13.8 mph - N/A   Mostly Cloudy
11:53 PM 73.9 °F 57.9 °F 57% 30.14 in 10.0 mi ENE 15.0 mph - N/A   Mostly Cloudy